Location: Waco, TX
(31.5480°N, 97.1670°W)
Time: 18:59:14
(UTC-05:00)

ISS - Pass Details

Date: 14 August 2018
Orbit: 401 x 409 km, 51.6° (Epoch: 19 August)

Event Time Altitude Azimuth Distance (km) Brightness Sun altitude
Rises 12:26:58 0° 252° (WSW) 2,302 -0.1 67.0°
Reaches altitude 10° 12:29:18 10° 267° (W) 1,446 -1.1 67.3°
Maximum altitude 12:31:57 23° 322° (NW) 911 -2.0 67.7°
Drops below altitude 10° 12:34:37 10° 17° (NNE) 1,451 -1.0 68.1°
Sets 12:36:58 0° 33° (NNE) 2,312 -0.1 68.4°
